| time (UTC) | temp C | wind direction | speed KPH | gust KPH | rain 1hr cm | rain 24hr cm | rain mn cm | humidity % | barometer mb |
| 20260510222552 | 31 | 287 | 6.4 | 16.1 | 0.00 | 0.00 | 0.00 | 62 | 1015.1 |
| 20260510222052 | 31 | 288 | 3.2 | 14.5 | 0.00 | 0.00 | 0.00 | 61 | 1015.0 |
| 20260510221553 | 31 | 264 | 4.8 | 17.7 | 0.00 | 0.00 | 0.00 | 60 | 1015.0 |
| 20260510221058 | 31 | 265 | 4.8 | 17.7 | 0.00 | 0.00 | 0.00 | 59 | 1015.0 |
| 20260510220554 | 31 | 269 | 6.4 | 17.7 | 0.00 | 0.00 | 0.00 | 57 | 1015.1 |
| 20260510220054 | 32 | 267 | 6.4 | 16.1 | 0.00 | 0.00 | 0.00 | 56 | 1015.1 |
| 20260510215556 | 32 | 278 | 6.4 | 14.5 | 0.00 | 0.00 | 0.00 | 56 | 1015.0 |
| 20260510215058 | 32 | 271 | 4.8 | 16.1 | 0.00 | 0.00 | 0.00 | 57 | 1015.0 |
| 20260510214602 | 32 | 285 | 4.8 | 16.1 | 0.00 | 0.00 | 0.00 | 57 | 1015.1 |
| 20260510214056 | 32 | 255 | 3.2 | 16.1 | 0.00 | 0.00 | 0.00 | 57 | 1015.1 |
| 20260510213558 | 32 | 269 | 6.4 | 19.3 | 0.00 | 0.00 | 0.00 | 56 | 1015.0 |
| 20260510213104 | 32 | 266 | 4.8 | 19.3 | 0.00 | 0.00 | 0.00 | 56 | 1015.1 |
| 20260510212558 | 32 | 286 | 8.0 | 19.3 | 0.00 | 0.00 | 0.00 | 56 | 1015.2 |
| 20260510212058 | 32 | 292 | 4.8 | 16.1 | 0.00 | 0.00 | 0.00 | 58 | 1015.2 |
| 20260510211600 | 32 | 240 | 6.4 | 16.1 | 0.00 | 0.00 | 0.00 | 58 | 1015.2 |
| 20260510211056 | 32 | 240 | 6.4 | 14.5 | 0.00 | 0.00 | 0.00 | 58 | 1015.2 |
| 20260510210555 | 32 | 256 | 4.8 | 14.5 | 0.00 | 0.00 | 0.00 | 59 | 1015.2 |
| 20260510210057 | 32 | 259 | 6.4 | 16.1 | 0.00 | 0.00 | 0.00 | 58 | 1015.4 |
| 20260510205555 | 32 | 257 | 4.8 | 16.1 | 0.00 | 0.00 | 0.00 | 58 | 1015.4 |
| 20260510205057 | 32 | 331 | 4.8 | 14.5 | 0.00 | 0.00 | 0.00 | 58 | 1015.3 |
| 20260510204600 | 32 | 242 | 6.4 | 17.7 | 0.00 | 0.00 | 0.00 | 58 | 1015.4 |
| 20260510204054 | 32 | 310 | 6.4 | 17.7 | 0.00 | 0.00 | 0.00 | 58 | 1015.3 |
| 20260510203555 | 32 | 292 | 8.0 | 17.7 | 0.00 | 0.00 | 0.00 | 58 | 1015.2 |
| 20260510203058 | 32 | 201 | 6.4 | 17.7 | 0.00 | 0.00 | 0.00 | 57 | 1015.3 |
| 20260510202557 | 32 | 277 | 6.4 | 14.5 | 0.00 | 0.00 | 0.00 | 57 | 1015.2 |
| 20260510202054 | 33 | 249 | 4.8 | 14.5 | 0.00 | 0.00 | 0.00 | 57 | 1015.2 |
| 20260510201559 | 33 | 247 | 4.8 | 19.3 | 0.00 | 0.00 | 0.00 | 57 | 1015.2 |
| 20260510201055 | 33 | 277 | 6.4 | 19.3 | 0.00 | 0.00 | 0.00 | 57 | 1015.2 |
| 20260510200555 | 33 | 329 | 8.0 | 17.7 | 0.00 | 0.00 | 0.00 | 55 | 1015.2 |
| 20260510200058 | 33 | 309 | 4.8 | 16.1 | 0.00 | 0.00 | 0.00 | 56 | 1015.2 |
| 20260510195553 | 33 | 65 | 3.2 | 16.1 | 0.00 | 0.00 | 0.00 | 56 | 1015.2 |
| 20260510195055 | 33 | 267 | 3.2 | 19.3 | 0.00 | 0.00 | 0.00 | 55 | 1015.3 |
| 20260510194600 | 33 | 0 | 3.2 | 19.3 | 0.00 | 0.00 | 0.00 | 58 | 1015.3 |
| 20260510194055 | 33 | 149 | 3.2 | 17.7 | 0.00 | 0.00 | 0.00 | 57 | 1015.4 |
| 20260510193556 | 33 | 119 | 3.2 | 17.7 | 0.00 | 0.00 | 0.00 | 56 | 1015.4 |
| 20260510193057 | 32 | 254 | 3.2 | 8.0 | 0.00 | 0.00 | 0.00 | 57 | 1015.4 |
| 20260510192555 | 32 | 157 | 1.6 | 12.9 | 0.00 | 0.00 | 0.00 | 56 | 1015.5 |
| 20260510192055 | 32 | 239 | 3.2 | 14.5 | 0.00 | 0.00 | 0.00 | 56 | 1015.4 |
| 20260510191559 | 32 | 38 | 3.2 | 22.5 | 0.00 | 0.00 | 0.00 | 56 | 1015.3 |
| 20260510191054 | 32 | 86 | 4.8 | 22.5 | 0.00 | 0.00 | 0.00 | 54 | 1015.4 |
| 20260510190554 | 32 | 26 | 3.2 | 14.5 | 0.00 | 0.00 | 0.00 | 57 | 1015.5 |
| 20260510190103 | 32 | 200 | 3.2 | 12.9 | 0.00 | 0.00 | 0.00 | 56 | 1015.5 |
| 20260510185555 | 32 | 0 | 1.6 | 12.9 | 0.00 | 0.00 | 0.00 | 55 | 1015.6 |
| 20260510185054 | 33 | 159 | 1.6 | 14.5 | 0.00 | 0.00 | 0.00 | 55 | 1015.6 |
| 20260510184554 | 34 | 263 | 3.2 | 16.1 | 0.00 | 0.00 | 0.00 | 53 | 1015.5 |
| 20260510184055 | 34 | 281 | 6.4 | 19.3 | 0.00 | 0.00 | 0.00 | 54 | 1015.4 |
| 20260510183556 | 34 | 287 | 9.7 | 19.3 | 0.00 | 0.00 | 0.00 | 54 | 1015.5 |
| 20260510183057 | 35 | 268 | 8.0 | 19.3 | 0.00 | 0.00 | 0.00 | 53 | 1015.5 |
| 20260510182555 | 35 | 274 | 8.0 | 24.1 | 0.00 | 0.00 | 0.00 | 53 | 1015.4 |
| 20260510182054 | 35 | 252 | 12.9 | 24.1 | 0.00 | 0.00 | 0.00 | 48 | 1015.4 |
| 20260510181608 | 36 | 304 | 6.4 | 17.7 | 0.00 | 0.00 | 0.00 | 51 | 1015.3 |
| 20260510181053 | 35 | 258 | 9.7 | 17.7 | 0.00 | 0.00 | 0.00 | 50 | 1015.3 |
| 20260510180555 | 35 | 273 | 4.8 | 16.1 | 0.00 | 0.00 | 0.00 | 51 | 1015.3 |
| 20260510180107 | 35 | 255 | 6.4 | 16.1 | 0.00 | 0.00 | 0.00 | 54 | 1015.4 |
| 20260510175553 | 35 | 274 | 4.8 | 16.1 | 0.00 | 0.00 | 0.00 | 53 | 1015.5 |
| 20260510175055 | 34 | 246 | 3.2 | 9.7 | 0.00 | 0.00 | 0.00 | 58 | 1015.6 |
| 20260510174555 | 33 | 282 | 3.2 | 14.5 | 0.00 | 0.00 | 0.00 | 56 | 1015.6 |
| 20260510174057 | 33 | 296 | 3.2 | 14.5 | 0.00 | 0.00 | 0.00 | 58 | 1015.6 |
| 20260510173553 | 33 | 207 | 1.6 | 12.9 | 0.00 | 0.00 | 0.00 | 57 | 1015.8 |
| 20260510173055 | 34 | 285 | 3.2 | 12.9 | 0.00 | 0.00 | 0.00 | 56 | 1015.9 |
| 20260510172553 | 34 | 243 | 3.2 | 12.9 | 0.00 | 0.00 | 0.00 | 59 | 1016.0 |
| 20260510172055 | 33 | 217 | 4.8 | 11.3 | 0.00 | 0.00 | 0.00 | 61 | 1016.0 |
| 20260510171602 | 33 | 311 | 1.6 | 16.1 | 0.00 | 0.00 | 0.00 | 58 | 1016.1 |
| 20260510171053 | 33 | 264 | 6.4 | 16.1 | 0.00 | 0.00 | 0.00 | 58 | 1016.2 |
| 20260510170553 | 33 | 255 | 6.4 | 14.5 | 0.00 | 0.00 | 0.00 | 61 | 1016.2 |
| 20260510170121 | 33 | 191 | 3.2 | 11.3 | 0.00 | 0.00 | 0.00 | 64 | 1016.3 |
| 20260510165555 | 33 | 256 | 1.6 | 14.5 | 0.00 | 0.00 | 0.00 | 58 | 1016.5 |
| 20260510165056 | 33 | 251 | 1.6 | 14.5 | 0.00 | 0.00 | 0.00 | 59 | 1016.4 |
| 20260510164605 | 33 | 246 | 1.6 | 14.5 | 0.00 | 0.00 | 0.00 | 58 | 1016.4 |
| 20260510164054 | 33 | 267 | 4.8 | 14.5 | 0.00 | 0.00 | 0.00 | 59 | 1016.6 |
| 20260510163556 | 33 | 209 | 4.8 | 14.5 | 0.00 | 0.00 | 0.00 | 60 | 1016.7 |
| 20260510163056 | 33 | 267 | 3.2 | 12.9 | 0.00 | 0.00 | 0.00 | 61 | 1016.6 |
| 20260510162555 | 32 | 122 | 1.6 | 14.5 | 0.00 | 0.00 | 0.00 | 60 | 1016.8 |
| 20260510162053 | 33 | 270 | 3.2 | 14.5 | 0.00 | 0.00 | 0.00 | 62 | 1016.8 |
| 20260510161554 | 33 | 249 | 1.6 | 11.3 | 0.00 | 0.00 | 0.00 | 64 | 1017.0 |
| 20260510161053 | 32 | 0 | 3.2 | 11.3 | 0.00 | 0.00 | 0.00 | 62 | 1017.0 |
| 20260510160554 | 32 | 275 | 1.6 | 9.7 | 0.00 | 0.00 | 0.00 | 66 | 1017.0 |
| 20260510160058 | 31 | 119 | 3.2 | 9.7 | 0.00 | 0.00 | 0.00 | 65 | 1016.9 |
| 20260510155553 | 31 | 165 | 1.6 | 8.0 | 0.00 | 0.00 | 0.00 | 66 | 1017.0 |
| 20260510155053 | 31 | 103 | 3.2 | 9.7 | 0.00 | 0.00 | 0.00 | 65 | 1017.0 |
| 20260510154558 | 31 | 256 | 3.2 | 12.9 | 0.00 | 0.00 | 0.00 | 65 | 1017.0 |
| 20260510154052 | 32 | 66 | 3.2 | 12.9 | 0.00 | 0.00 | 0.00 | 65 | 1016.9 |
| 20260510153557 | 32 | 243 | 3.2 | 12.9 | 0.00 | 0.00 | 0.00 | 67 | 1016.8 |
| 20260510153057 | 31 | 233 | 4.8 | 11.3 | 0.00 | 0.00 | 0.00 | 66 | 1016.9 |
| 20260510152554 | 31 | 210 | 3.2 | 8.0 | 0.00 | 0.00 | 0.00 | 66 | 1017.0 |
| 20260510152054 | 32 | 272 | 1.6 | 11.3 | 0.00 | 0.00 | 0.00 | 65 | 1016.8 |
| 20260510151557 | 31 | 360 | 1.6 | 16.1 | 0.00 | 0.00 | 0.00 | 67 | 1016.8 |
| 20260510151052 | 31 | 159 | 4.8 | 16.1 | 0.00 | 0.00 | 0.00 | 68 | 1016.9 |
| 20260510150555 | 31 | 168 | 3.2 | 16.1 | 0.00 | 0.00 | 0.00 | 67 | 1016.9 |
| 20260510150055 | 31 | 278 | 4.8 | 11.3 | 0.00 | 0.00 | 0.00 | 67 | 1016.9 |
| 20260510145554 | 30 | 246 | 1.6 | 14.5 | 0.00 | 0.00 | 0.00 | 69 | 1017.0 |
| 20260510145054 | 30 | 0 | 3.2 | 14.5 | 0.00 | 0.00 | 0.00 | 71 | 1016.9 |
| 20260510144555 | 30 | 134 | 3.2 | 12.9 | 0.00 | 0.00 | 0.00 | 68 | 1016.9 |
| 20260510144055 | 31 | 184 | 1.6 | 12.9 | 0.00 | 0.00 | 0.00 | 69 | 1016.9 |
| 20260510143553 | 30 | 0 | 3.2 | 12.9 | 0.00 | 0.00 | 0.00 | 70 | 1016.9 |
| 20260510143056 | 30 | 26 | 1.6 | 12.9 | 0.00 | 0.00 | 0.00 | 69 | 1016.8 |
| 20260510142553 | 30 | 325 | 1.6 | 12.9 | 0.00 | 0.00 | 0.00 | 70 | 1016.7 |
| 20260510142053 | 30 | 176 | 4.8 | 12.9 | 0.00 | 0.00 | 0.00 | 71 | 1016.6 |
| 20260510141555 | 30 | 140 | 4.8 | 14.5 | 0.00 | 0.00 | 0.00 | 70 | 1016.6 |
| 20260510141053 | 30 | 169 | 4.8 | 14.5 | 0.00 | 0.00 | 0.00 | 72 | 1016.6 |
| 20260510140552 | 29 | 178 | 3.2 | 16.1 | 0.00 | 0.00 | 0.00 | 73 | 1016.6 |
| 20260510140054 | 29 | 194 | 4.8 | 16.1 | 0.00 | 0.00 | 0.00 | 75 | 1016.6 |
| 20260510135556 | 28 | 181 | 4.8 | 16.1 | 0.00 | 0.00 | 0.00 | 75 | 1016.6 |
| 20260510135056 | 28 | 155 | 4.8 | 16.1 | 0.00 | 0.00 | 0.00 | 75 | 1016.6 |
| 20260510134600 | 27 | 147 | 3.2 | 16.1 | 0.00 | 0.00 | 0.00 | 78 | 1016.6 |
| 20260510134055 | 27 | 131 | 1.6 | 9.7 | 0.00 | 0.00 | 0.00 | 77 | 1016.6 |
| 20260510133558 | 27 | 123 | 1.6 | 14.5 | 0.00 | 0.00 | 0.00 | 78 | 1016.6 |
| 20260510133057 | 27 | 128 | 1.6 | 14.5 | 0.00 | 0.00 | 0.00 | 78 | 1016.5 |
| 20260510132554 | 27 | 142 | 4.8 | 12.9 | 0.00 | 0.00 | 0.00 | 79 | 1016.4 |
| 20260510132054 | 27 | 123 | 3.2 | 14.5 | 0.00 | 0.00 | 0.00 | 79 | 1016.4 |
| 20260510131556 | 27 | 260 | 1.6 | 14.5 | 0.00 | 0.00 | 0.00 | 80 | 1016.4 |
| 20260510131055 | 26 | 159 | 1.6 | 11.3 | 0.00 | 0.00 | 0.00 | 83 | 1016.5 |
| 20260510130553 | 26 | 147 | 1.6 | 11.3 | 0.00 | 0.00 | 0.00 | 83 | 1016.4 |
| 20260510130054 | 26 | 159 | 3.2 | 11.3 | 0.00 | 0.00 | 0.00 | 84 | 1016.4 |
| 20260510125552 | 26 | 162 | 1.6 | 8.0 | 0.00 | 0.00 | 0.00 | 84 | 1016.4 |
| 20260510125053 | 26 | 0 | 3.2 | 8.0 | 0.00 | 0.00 | 0.00 | 84 | 1016.4 |
| 20260510124608 | 25 | 0 | 0.0 | 6.4 | 0.00 | 0.00 | 0.00 | 85 | 1016.3 |
| 20260510124056 | 25 | 0 | 0.0 | 8.0 | 0.00 | 0.00 | 0.00 | 86 | 1016.3 |
| 20260510123556 | 25 | 0 | 1.6 | 9.7 | 0.00 | 0.00 | 0.00 | 86 | 1016.2 |
| 20260510123054 | 25 | 0 | 0.0 | 11.3 | 0.00 | 0.00 | 0.00 | 87 | 1016.2 |
| 20260510122556 | 25 | 152 | 3.2 | 11.3 | 0.00 | 0.00 | 0.00 | 87 | 1016.2 |
| 20260510122052 | 24 | 177 | 1.6 | 9.7 | 0.00 | 0.00 | 0.00 | 89 | 1016.1 |
| 20260510121554 | 24 | 0 | 3.2 | 9.7 | 0.00 | 0.00 | 0.00 | 90 | 1016.1 |
| 20260510121053 | 23 | 0 | 1.6 | 6.4 | 0.00 | 0.00 | 0.00 | 91 | 1016.0 |
| 20260510120555 | 23 | 296 | 0.0 | 4.8 | 0.00 | 0.00 | 0.00 | 91 | 1015.9 |
| 20260510120111 | 23 | 0 | 0.0 | 4.8 | 0.00 | 0.00 | 0.00 | 92 | 1015.8 |
| 20260510115553 | 23 | 336 | 0.0 | 6.4 | 0.00 | 0.00 | 0.00 | 93 | 1015.7 |
| 20260510115053 | 23 | 0 | 1.6 | 6.4 | 0.00 | 0.00 | 0.00 | 93 | 1015.7 |
| 20260510114601 | 23 | 142 | 0.0 | 6.4 | 0.00 | 0.00 | 0.00 | 93 | 1015.6 |
| 20260510114056 | 22 | 0 | 0.0 | 4.8 | 0.00 | 0.00 | 0.00 | 93 | 1015.6 |
| 20260510113555 | 22 | 155 | 0.0 | 6.4 | 0.00 | 0.00 | 0.00 | 93 | 1015.4 |
| 20260510113052 | 22 | 134 | 0.0 | 6.4 | 0.00 | 0.00 | 0.00 | 93 | 1015.3 |
| 20260510112553 | 22 | 136 | 0.0 | 6.4 | 0.00 | 0.00 | 0.00 | 93 | 1015.2 |
| 20260510112053 | 22 | 0 | 0.0 | 6.4 | 0.00 | 0.00 | 0.00 | 93 | 1015.2 |
| 20260510111557 | 22 | 0 | 0.0 | 6.4 | 0.00 | 0.00 | 0.00 | 93 | 1014.8 |
| 20260510111054 | 22 | 0 | 0.0 | 3.2 | 0.00 | 0.00 | 0.00 | 93 | 1014.8 |
| 20260510110554 | 22 | 0 | 0.0 | 3.2 | 0.00 | 0.00 | 0.00 | 93 | 1014.9 |
| 20260510110055 | 22 | 0 | 0.0 | 3.2 | 0.00 | 0.00 | 0.00 | 93 | 1014.7 |
| 20260510105553 | 22 | 0 | 0.0 | 3.2 | 0.00 | 0.00 | 0.00 | 93 | 1014.6 |
| 20260510105055 | 22 | 0 | 0.0 | 3.2 | 0.00 | 0.00 | 0.00 | 93 | 1014.5 |
| 20260510104558 | 22 | 0 | 0.0 | 1.6 | 0.00 | 0.00 | 0.00 | 93 | 1014.4 |
| 20260510104054 | 22 | 0 | 0.0 | 3.2 | 0.00 | 0.00 | 0.00 | 93 | 1014.5 |
| 20260510103552 | 22 | 0 | 0.0 | 4.8 | 0.00 | 0.00 | 0.00 | 93 | 1014.5 |
| 20260510103055 | 22 | 0 | 0.0 | 6.4 | 0.00 | 0.00 | 0.00 | 93 | 1014.4 |
| 20260510102554 | 22 | 0 | 0.0 | 6.4 | 0.00 | 0.00 | 0.00 | 93 | 1014.4 |
| 20260510102054 | 22 | 133 | 0.0 | 6.4 | 0.00 | 0.00 | 0.00 | 93 | 1014.2 |
| 20260510101557 | 22 | 138 | 1.6 | 8.0 | 0.00 | 0.00 | 0.00 | 93 | 1014.1 |
| 20260510101053 | 22 | 0 | 1.6 | 8.0 | 0.00 | 0.00 | 0.00 | 93 | 1014.0 |
| 20260510100553 | 22 | 154 | 0.0 | 4.8 | 0.00 | 0.00 | 0.00 | 93 | 1014.0 |
| 20260510095553 | 22 | 163 | 0.0 | 8.0 | 0.00 | 0.00 | 0.00 | 93 | 1013.9 |
| 20260510095053 | 22 | 0 | 0.0 | 8.0 | 0.00 | 0.00 | 0.00 | 93 | 1014.0 |
| 20260510094558 | 22 | 123 | 1.6 | 6.4 | 0.00 | 0.00 | 0.00 | 93 | 1013.9 |
| 20260510094055 | 22 | 0 | 0.0 | 6.4 | 0.00 | 0.00 | 0.00 | 93 | 1013.9 |
| 20260510093555 | 22 | 132 | 0.0 | 8.0 | 0.00 | 0.00 | 0.00 | 93 | 1013.9 |
| 20260510093102 | 22 | 163 | 0.0 | 9.7 | 0.00 | 0.00 | 0.00 | 93 | 1013.8 |
| 20260510092556 | 22 | 142 | 1.6 | 9.7 | 0.00 | 0.00 | 0.00 | 93 | 1013.8 |
| 20260510092055 | 22 | 155 | 1.6 | 9.7 | 0.00 | 0.00 | 0.00 | 93 | 1013.7 |
| 20260510091554 | 22 | 0 | 0.0 | 6.4 | 0.00 | 0.00 | 0.00 | 93 | 1013.8 |
| 20260510091052 | 22 | 166 | 0.0 | 3.2 | 0.00 | 0.00 | 0.00 | 93 | 1013.7 |
| 20260510090555 | 22 | 157 | 0.0 | 3.2 | 0.00 | 0.00 | 0.00 | 93 | 1013.7 |
| 20260510090053 | 22 | 0 | 0.0 | 6.4 | 0.00 | 0.00 | 0.00 | 93 | 1013.7 |
| 20260510085557 | 22 | 157 | 0.0 | 9.7 | 0.00 | 0.00 | 0.00 | 93 | 1013.6 |
| 20260510085100 | 22 | 128 | 0.0 | 9.7 | 0.00 | 0.00 | 0.00 | 93 | 1013.4 |
| 20260510084600 | 22 | 151 | 1.6 | 9.7 | 0.00 | 0.00 | 0.00 | 93 | 1013.4 |
| 20260510084057 | 22 | 146 | 1.6 | 6.4 | 0.00 | 0.00 | 0.00 | 93 | 1013.3 |
| 20260510083557 | 22 | 129 | 1.6 | 12.9 | 0.00 | 0.00 | 0.00 | 93 | 1013.3 |
| 20260510083107 | 22 | 136 | 1.6 | 12.9 | 0.00 | 0.00 | 0.00 | 93 | 1013.2 |
| 20260510082556 | 22 | 138 | 3.2 | 11.3 | 0.00 | 0.00 | 0.00 | 93 | 1013.2 |
| 20260510082056 | 22 | 150 | 3.2 | 11.3 | 0.00 | 0.00 | 0.00 | 93 | 1013.2 |
| 20260510081559 | 22 | 108 | 1.6 | 8.0 | 0.00 | 0.00 | 0.00 | 92 | 1013.2 |
| 20260510081058 | 22 | 141 | 1.6 | 6.4 | 0.00 | 0.00 | 0.00 | 92 | 1013.2 |
| 20260510080559 | 22 | 138 | 1.6 | 6.4 | 0.00 | 0.00 | 0.00 | 92 | 1013.2 |
| 20260510080056 | 22 | 131 | 1.6 | 6.4 | 0.00 | 0.00 | 0.00 | 92 | 1013.3 |
| 20260510075557 | 22 | 134 | 1.6 | 8.0 | 0.00 | 0.00 | 0.00 | 92 | 1013.5 |
| 20260510075057 | 22 | 0 | 1.6 | 11.3 | 0.00 | 0.00 | 0.00 | 92 | 1013.4 |
| 20260510074556 | 23 | 132 | 1.6 | 11.3 | 0.00 | 0.00 | 0.00 | 92 | 1013.4 |
| 20260510074057 | 23 | 0 | 3.2 | 9.7 | 0.00 | 0.00 | 0.00 | 92 | 1013.4 |
| 20260510073557 | 23 | 106 | 1.6 | 6.4 | 0.00 | 0.00 | 0.00 | 92 | 1013.5 |
| 20260510073106 | 23 | 127 | 1.6 | 8.0 | 0.00 | 0.00 | 0.00 | 92 | 1013.5 |
| 20260510072557 | 23 | 125 | 1.6 | 8.0 | 0.00 | 0.00 | 0.00 | 92 | 1013.6 |
| 20260510072101 | 23 | 0 | 1.6 | 8.0 | 0.00 | 0.00 | 0.00 | 92 | 1013.7 |
| 20260510071555 | 23 | 157 | 1.6 | 8.0 | 0.00 | 0.00 | 0.00 | 92 | 1013.8 |
| 20260510071055 | 23 | 0 | 1.6 | 6.4 | 0.00 | 0.00 | 0.00 | 92 | 1013.8 |
| 20260510070556 | 23 | 134 | 3.2 | 8.0 | 0.00 | 0.00 | 0.00 | 92 | 1013.7 |
| 20260510070059 | 23 | 119 | 1.6 | 8.0 | 0.00 | 0.00 | 0.00 | 92 | 1013.7 |
| 20260510065556 | 23 | 122 | 1.6 | 6.4 | 0.00 | 0.00 | 0.00 | 92 | 1013.7 |
| 20260510065056 | 23 | 161 | 0.0 | 6.4 | 0.00 | 0.00 | 0.00 | 92 | 1013.8 |
| 20260510064558 | 23 | 149 | 0.0 | 6.4 | 0.00 | 0.00 | 0.00 | 92 | 1013.9 |
| 20260510064055 | 23 | 123 | 1.6 | 6.4 | 0.00 | 0.00 | 0.00 | 92 | 1013.8 |
| 20260510063555 | 23 | 127 | 1.6 | 4.8 | 0.00 | 0.00 | 0.00 | 92 | 1013.9 |
| 20260510063055 | 23 | 121 | 1.6 | 4.8 | 0.00 | 0.00 | 0.00 | 92 | 1014.0 |
| 20260510062555 | 23 | 127 | 0.0 | 4.8 | 0.00 | 0.00 | 0.00 | 92 | 1014.2 |
| 20260510062055 | 23 | 0 | 0.0 | 4.8 | 0.00 | 0.00 | 0.00 | 92 | 1014.4 |
| 20260510061556 | 23 | 0 | 0.0 | 4.8 | 0.00 | 0.00 | 0.00 | 92 | 1014.5 |
| 20260510061056 | 23 | 0 | 1.6 | 4.8 | 0.00 | 0.00 | 0.00 | 91 | 1014.4 |
| 20260510060556 | 23 | 158 | 0.0 | 4.8 | 0.00 | 0.00 | 0.00 | 91 | 1014.5 |
| 20260510060057 | 23 | 119 | 0.0 | 1.6 | 0.00 | 0.00 | 0.00 | 91 | 1014.5 |
| 20260510055555 | 23 | 0 | 0.0 | 1.6 | 0.00 | 0.00 | 0.00 | 91 | 1014.4 |
| 20260510055059 | 23 | 0 | 0.0 | 1.6 | 0.00 | 0.00 | 0.00 | 90 | 1014.5 |
| 20260510054555 | 23 | 0 | 0.0 | 1.6 | 0.00 | 0.00 | 0.00 | 90 | 1014.6 |
| 20260510054056 | 23 | 0 | 0.0 | 1.6 | 0.00 | 0.00 | 0.00 | 90 | 1014.7 |
| 20260510053555 | 23 | 0 | 0.0 | 1.6 | 0.00 | 0.00 | 0.00 | 90 | 1014.8 |
| 20260510053059 | 23 | 0 | 0.0 | 1.6 | 0.00 | 0.00 | 0.00 | 89 | 1014.8 |
| 20260510052556 | 23 | 0 | 0.0 | 3.2 | 0.00 | 0.00 | 0.00 | 89 | 1014.9 |
| 20260510052055 | 23 | 0 | 0.0 | 3.2 | 0.00 | 0.00 | 0.00 | 89 | 1014.8 |
| 20260510051602 | 23 | 0 | 0.0 | 3.2 | 0.00 | 0.00 | 0.00 | 89 | 1014.9 |
| 20260510051058 | 23 | 0 | 0.0 | 3.2 | 0.00 | 0.00 | 0.00 | 88 | 1015.0 |
| 20260510050557 | 23 | 0 | 0.0 | 3.2 | 0.00 | 0.00 | 0.00 | 88 | 1015.0 |
| 20260510050100 | 23 | 0 | 1.6 | 3.2 | 0.00 | 0.00 | 0.00 | 88 | 1015.1 |
| 20260510045557 | 23 | 0 | 0.0 | 3.2 | 0.00 | 0.00 | 0.00 | 87 | 1015.1 |
| 20260510045057 | 23 | 0 | 1.6 | 3.2 | 0.00 | 0.00 | 0.00 | 87 | 1015.1 |
| 20260510044555 | 23 | 121 | 0.0 | 3.2 | 0.00 | 0.00 | 0.00 | 86 | 1015.1 |
| 20260510044056 | 23 | 0 | 0.0 | 1.6 | 0.00 | 0.00 | 0.00 | 86 | 1015.3 |
| 20260510043557 | 23 | 0 | 0.0 | 4.8 | 0.00 | 0.00 | 0.00 | 86 | 1015.4 |
| 20260510043058 | 23 | 0 | 0.0 | 4.8 | 0.00 | 0.00 | 0.00 | 86 | 1015.4 |
| 20260510042556 | 23 | 0 | 0.0 | 6.4 | 0.00 | 0.00 | 0.00 | 85 | 1015.3 |
| 20260510042055 | 24 | 134 | 1.6 | 6.4 | 0.00 | 0.00 | 0.00 | 85 | 1015.3 |
| 20260510041556 | 23 | 103 | 0.0 | 4.8 | 0.00 | 0.00 | 0.00 | 85 | 1015.3 |
| 20260510041056 | 23 | 104 | 1.6 | 4.8 | 0.00 | 0.00 | 0.00 | 85 | 1015.3 |
| 20260510040558 | 23 | 107 | 0.0 | 3.2 | 0.00 | 0.00 | 0.00 | 85 | 1015.4 |
| 20260510040057 | 23 | 0 | 0.0 | 3.2 | 0.00 | 0.00 | 0.00 | 85 | 1015.4 |
| 20260510035557 | 23 | 0 | 0.0 | 3.2 | 0.00 | 0.00 | 0.00 | 85 | 1015.4 |
| 20260510035056 | 23 | 103 | 0.0 | 4.8 | 0.00 | 0.00 | 0.00 | 85 | 1015.3 |
| 20260510034559 | 23 | 0 | 0.0 | 4.8 | 0.00 | 0.00 | 0.00 | 85 | 1015.4 |
| 20260510034057 | 23 | 0 | 1.6 | 4.8 | 0.00 | 0.00 | 0.00 | 84 | 1015.3 |
| 20260510033557 | 23 | 0 | 0.0 | 3.2 | 0.00 | 0.00 | 0.00 | 84 | 1015.3 |
| 20260510033129 | 23 | 115 | 0.0 | 1.6 | 0.00 | 0.00 | 0.00 | 84 | 1015.4 |
| 20260510032557 | 23 | 104 | 0.0 | 1.6 | 0.00 | 0.00 | 0.00 | 84 | 1015.3 |
| 20260510032057 | 23 | 0 | 0.0 | 3.2 | 0.00 | 0.00 | 0.00 | 84 | 1015.4 |
| 20260510031557 | 23 | 0 | 0.0 | 3.2 | 0.00 | 0.00 | 0.00 | 83 | 1015.3 |
| 20260510031056 | 23 | 0 | 0.0 | 1.6 | 0.00 | 0.00 | 0.00 | 83 | 1015.2 |
| 20260510030556 | 23 | 0 | 0.0 | 1.6 | 0.00 | 0.00 | 0.00 | 83 | 1015.2 |
| 20260510030055 | 23 | 0 | 0.0 | 3.2 | 0.00 | 0.00 | 0.00 | 83 | 1015.3 |
| 20260510025557 | 23 | 0 | 0.0 | 3.2 | 0.00 | 0.00 | 0.00 | 83 | 1015.3 |
| 20260510025129 | 23 | 0 | 0.0 | 3.2 | 0.00 | 0.00 | 0.00 | 82 | 1015.1 |
| 20260510024605 | 23 | 113 | 0.0 | 4.8 | 0.00 | 0.00 | 0.00 | 82 | 1015.1 |
| 20260510024059 | 23 | 0 | 1.6 | 4.8 | 0.00 | 0.00 | 0.00 | 82 | 1015.0 |
| 20260510023557 | 23 | 119 | 0.0 | 4.8 | 0.00 | 0.00 | 0.00 | 82 | 1014.9 |
| 20260510023056 | 24 | 121 | 0.0 | 4.8 | 0.00 | 0.00 | 0.00 | 82 | 1015.1 |
| 20260510022558 | 24 | 123 | 1.6 | 4.8 | 0.00 | 0.00 | 0.00 | 82 | 1015.0 |
| 20260510022056 | 24 | 126 | 0.0 | 4.8 | 0.00 | 0.00 | 0.00 | 82 | 1014.9 |
| 20260510021557 | 24 | 92 | 1.6 | 4.8 | 0.00 | 0.00 | 0.00 | 82 | 1014.8 |
| 20260510021058 | 24 | 96 | 1.6 | 4.8 | 0.00 | 0.00 | 0.00 | 82 | 1014.9 |
| 20260510020558 | 24 | 91 | 0.0 | 4.8 | 0.00 | 0.00 | 0.00 | 82 | 1014.9 |
| 20260510020058 | 24 | 107 | 0.0 | 4.8 | 0.00 | 0.00 | 0.00 | 81 | 1014.8 |
| 20260510015557 | 24 | 74 | 0.0 | 4.8 | 0.00 | 0.00 | 0.00 | 81 | 1014.7 |
| 20260510015057 | 24 | 101 | 0.0 | 3.2 | 0.00 | 0.00 | 0.00 | 81 | 1014.7 |
| 20260510014557 | 24 | 0 | 0.0 | 3.2 | 0.00 | 0.00 | 0.00 | 81 | 1014.6 |
| 20260510014058 | 24 | 5 | 0.0 | 3.2 | 0.00 | 0.00 | 0.00 | 81 | 1014.7 |
| 20260510013558 | 24 | 0 | 0.0 | 3.2 | 0.00 | 0.00 | 0.00 | 81 | 1014.7 |
| 20260510013056 | 24 | 336 | 0.0 | 3.2 | 0.00 | 0.00 | 0.00 | 81 | 1014.5 |
| 20260510012600 | 24 | 44 | 0.0 | 3.2 | 0.00 | 0.00 | 0.00 | 81 | 1014.3 |
| 20260510012057 | 24 | 97 | 0.0 | 3.2 | 0.00 | 0.00 | 0.00 | 81 | 1014.3 |
| 20260510011557 | 24 | 336 | 0.0 | 4.8 | 0.00 | 0.00 | 0.00 | 81 | 1014.3 |
| 20260510011058 | 24 | 49 | 0.0 | 4.8 | 0.00 | 0.00 | 0.00 | 81 | 1014.2 |
| 20260510010558 | 24 | 0 | 0.0 | 6.4 | 0.00 | 0.00 | 0.00 | 81 | 1014.2 |
| 20260510010055 | 24 | 0 | 1.6 | 6.4 | 0.00 | 0.00 | 0.00 | 81 | 1014.2 |
| 20260510005558 | 24 | 0 | 3.2 | 8.0 | 0.00 | 0.00 | 0.00 | 81 | 1014.2 |
| 20260510005057 | 24 | 327 | 0.0 | 8.0 | 0.00 | 0.00 | 0.00 | 81 | 1014.1 |
| 20260510004555 | 24 | 322 | 3.2 | 8.0 | 0.00 | 0.00 | 0.00 | 80 | 1013.9 |
| 20260510004057 | 25 | 318 | 1.6 | 9.7 | 0.00 | 0.00 | 0.00 | 80 | 1013.7 |
| 20260510003557 | 25 | 0 | 1.6 | 9.7 | 0.00 | 0.00 | 0.00 | 80 | 1013.7 |
| 20260510003106 | 25 | 58 | 0.0 | 9.7 | 0.00 | 0.00 | 0.00 | 80 | 1013.7 |
| 20260510002558 | 25 | 49 | 0.0 | 9.7 | 0.00 | 0.00 | 0.00 | 80 | 1013.6 |
| 20260510002057 | 25 | 5 | 1.6 | 8.0 | 0.00 | 0.00 | 0.00 | 80 | 1013.6 |
| 20260510001555 | 25 | 0 | 0.0 | 9.7 | 0.00 | 0.00 | 0.00 | 80 | 1013.5 |
| 20260510001058 | 25 | 40 | 1.6 | 9.7 | 0.00 | 0.00 | 0.00 | 80 | 1013.4 |
| 20260510000601 | 25 | 327 | 4.8 | 14.5 | 0.00 | 0.00 | 0.00 | 80 | 1013.4 |
| 20260510000056 | 26 | 334 | 6.4 | 16.1 | 0.00 | 0.00 | 0.00 | 80 | 1013.4 |
| 20260509235557 | 26 | 338 | 4.8 | 16.1 | 0.00 | 0.00 | 0.00 | 79 | 1013.4 |
| 20260509235057 | 26 | 315 | 6.4 | 19.3 | 0.00 | 0.00 | 0.00 | 78 | 1013.3 |
| 20260509234609 | 27 | 329 | 8.0 | 19.3 | 0.00 | 0.00 | 0.00 | 76 | 1013.1 |
| 20260509234057 | 27 | 325 | 8.0 | 16.1 | 0.00 | 0.00 | 0.00 | 72 | 1013.1 |
| 20260509233601 | 27 | 326 | 4.8 | 16.1 | 0.00 | 0.00 | 0.00 | 71 | 1012.9 |
| 20260509233057 | 28 | 320 | 8.0 | 16.1 | 0.00 | 0.00 | 0.00 | 71 | 1012.9 |
| 20260509232558 | 28 | 332 | 6.4 | 16.1 | 0.00 | 0.00 | 0.00 | 70 | 1012.8 |
| 20260509232058 | 28 | 318 | 4.8 | 16.1 | 0.00 | 0.00 | 0.00 | 70 | 1012.9 |
| 20260509231601 | 28 | 286 | 8.0 | 16.1 | 0.00 | 0.00 | 0.00 | 69 | 1012.9 |
| 20260509231059 | 28 | 311 | 4.8 | 12.9 | 0.00 | 0.00 | 0.00 | 69 | 1012.8 |
| 20260509230556 | 28 | 321 | 6.4 | 12.9 | 0.00 | 0.00 | 0.00 | 69 | 1012.7 |
| 20260509230104 | 28 | 316 | 3.2 | 16.1 | 0.00 | 0.00 | 0.00 | 68 | 1012.7 |
| 20260509225556 | 28 | 304 | 6.4 | 16.1 | 0.00 | 0.00 | 0.00 | 67 | 1012.7 |
| 20260509225056 | 29 | 306 | 8.0 | 16.1 | 0.00 | 0.00 | 0.00 | 67 | 1012.6 |
| 20260509224603 | 29 | 310 | 6.4 | 16.1 | 0.00 | 0.00 | 0.00 | 66 | 1012.6 |
| 20260509224100 | 29 | 272 | 4.8 | 14.5 | 0.00 | 0.00 | 0.00 | 65 | 1012.6 |
| 20260509223557 | 30 | 322 | 4.8 | 14.5 | 0.00 | 0.00 | 0.00 | 65 | 1012.5 |
| 20260509223103 | 30 | 313 | 4.8 | 14.5 | 0.00 | 0.00 | 0.00 | 63 | 1012.3 |